Flag for Equatorial Guinea Weather past 2 weeks in Malabo, Equatorial Guinea

Now
77 °F

Thunderstorms. Passing clouds.


Feels Like: 78 °F
Forecast: 74 / 83 °F
Wind: 7 mph from West

Location: Malabo/Fernando Poo

Current Time: Oct 21, 2014 at 10:44:53 PM

Latest Report: Oct 21, 2014 at 10:00 PM


Visibility: N/A

Pressure: 29.92 "Hg

Humidity: 94%

Dew point: 75 °F

Location of MalaboLocation

Historic Weather in Malabo — Graph

°F

Malabo temperature yesterday

Maximum temperature yesterday: 84 °F (at 10:00 AM)
Minimum temperature yesterday: 73 °F (at 6:00 AM)
Average temperature yesterday: 79 °F

Past Weeks' High & Low Weather Summary

 TemperatureHumidityPressure
High88 °F (Oct 7, 2:00 PM)100% (Oct 8, 12:00 AM)30.01 "Hg (Oct 8, 12:00 AM)
Low70 °F (Oct 13, 5:00 AM)55% (Oct 7, 2:00 PM)29.77 "Hg (Oct 21, 4:00 PM)
Average78 °F87%29.90 "Hg
* Reported Oct 6 9:00 PM — Oct 21 9:00 PM, Malabo, Weather by CustomWeather, © 2014

Note: Actual official high and low records may vary slightly from our data, if they occured in-between our weather recording intervals... More about our weather records

Advertising

Malabo weather history for previous 24 hours

 ConditionsComfort  
Time TempWeatherWind HumidityBarometerVisibility
9:00 PM
Oct 21
77 °FThunderstorms. Passing clouds.5 mph94%29.92 "HgN/A
8:00 PM79 °FPassing clouds.7 mph94%29.83 "HgN/A
5:00 PM81 °FPartly sunny.8 mph79%29.77 "HgN/A
4:00 PM84 °FBroken clouds.12 mph74%29.77 "HgN/A
3:30 PM81 °FBroken clouds.10 mph84%29.80 "HgN/A
2:00 PM81 °FBroken clouds.6 mph79%29.89 "HgN/A
1:00 PM81 °FThunderstorms. Partly sunny.10 mph84%29.89 "HgN/A
12:00 PM81 °FThunderstorms. Partly sunny.6 mph79%29.92 "HgN/A
11:00 AM82 °FThunderstorms. Broken clouds.5 mph79%29.95 "HgN/A
10:00 AM82 °FThunderstorms. Broken clouds.5 mph79%29.95 "HgN/A
9:00 AM81 °FThunderstorms. Broken clouds.7 mph84%29.95 "HgN/A
8:00 AM79 °FThunderstorms. Partly sunny.5 mph89%29.92 "HgN/A
7:00 AM75 °FThunderstorms. Partly sunny.6 mph94%29.89 "HgN/A
6:00 AM73 °FThunderstorms. Passing clouds.6 mph94%29.86 "HgN/A
5:00 AM73 °FThunderstorms. Passing clouds.5 mph100%29.86 "HgN/A
4:00 AM75 °FThunderstorms. Passing clouds.6 mph94%29.86 "HgN/A
2:00 AM73 °FPassing clouds.6 mph94%29.89 "HgN/A
1:00 AM73 °FThunderstorms. Passing clouds.6 mph100%29.89 "HgN/A
12:00 AM73 °FThunderstorms. Passing clouds.2 mph100%29.92 "HgN/A
11:00 PM
Oct 20
75 °FThunderstorms. Passing clouds.No wind94%29.92 "HgN/A
10:00 PM77 °FThunderstorms. Passing clouds.7 mph89%29.92 "HgN/A
Weather by CustomWeather, © 2014

See weather overviewHow to use our weather pages